Location: Elstree
(51.6403°N, 0.2969°W)
Time: 15:28:17
(UTC+00:00)

SJ 16-02 - Pass Details

Date: 20 June 2021
Orbit: 606 x 616 km, 75.0° (Epoch: 29 July)

Event Time Altitude Azimuth Distance (km) Brightness Sun altitude
Rises 21:29:31 0° 347° (NNW) 2,879 6.3 -7.7°
Reaches altitude 10° 21:33:28 10° 22° (NNE) 1,969 4.4 -8.1°
Maximum altitude 21:34:49 11° 41° (NE) 1,887 4.1 -8.2°
Drops below altitude 10° 21:36:10 10° 59° (ENE) 1,965 3.9 -8.3°
Sets 21:40:06 0° 94° (E) 2,864 4.4 -8.7°
